Regional Weather Roundup
Issued by NWS

Home | Current Version | Previous Version | Text Only | Print | Product List | Glossary On
Versions: 1 2 3 4 5 6 7 8 9 10 11 12 13 14 15 16 17 18 19 20 21 22 23 24 25 26 27 28 29 30 31 32 33 34 35 36 37 38 39 40 41 42 43 44 45 46 47 48 49 50
000
ASUS44 KFWD 020615
RWRTX
NORTH TEXAS HOURLY WEATHER ROUNDUP
NATIONAL WEATHER SERVICE FORT WORTH TX
100 AM CDT SUN AUG 02 2015

NOTE: "FAIR" INDICATES FEW OR NO CLOUDS BELOW 12,000 FEET WITH NO
SIGNIFICANT WEATHER AND/OR OBSTRUCTIONS TO VISIBILITY.

TXZ118-119-020700-
DALLAS/FORT WORTH METROPLEX

CITY           SKY/WX    TMP DP  RH WIND       PRES   REMARKS
DFW AIRPORT    MOCLDY    85  59  41 SE7       29.95S
6HR MIN TEMP:  85; 6HR MAX TEMP:  96;

DALLAS LOVE    MOCLDY    87  58  37 SE9       29.95S
6HR MIN TEMP:  86; 6HR MAX TEMP:  95;

FTW MEACHAM    CLOUDY    87  60  40 SE7       29.95F
6HR MIN TEMP:  86; 6HR MAX TEMP:  96;

DAL-EXECUTIVE  MOCLDY    84  57  39 SE7       29.96S
6HR MIN TEMP:  81; 6HR MAX TEMP:  95;

FTW-ALLIANCE   MOCLDY    82  61  48 SE6       29.95F
6HR MIN TEMP:  79; 6HR MAX TEMP:  94;

FTW-NAS-JRB    CLOUDY    86  60  41 SE5       29.96S
6HR MIN TEMP:  86; 6HR MAX TEMP:  94;

FTW-SPINKS     MOCLDY    80  63  56 CALM      29.97S
6HR MIN TEMP:  79; 6HR MAX TEMP:  95;

ARLINGTON      CLOUDY    87  60  40 SE6       29.96S
6HR MIN TEMP:  85; 6HR MAX TEMP:  96;

GRAND PRAIRIE  CLOUDY    86  61  42 E6        29.97S
6HR MIN TEMP:  86; 6HR MAX TEMP:  94;

ADDISON        PTCLDY    87  59  39 SE8       29.98S
6HR MIN TEMP:  86; 6HR MAX TEMP:  95;

MESQUITE       PTCLDY    82  57  43 SE3       29.96S
6HR MIN TEMP:  79; 6HR MAX TEMP:  95;

LANCASTER      PTCLDY    79  57  47 CALM      29.97S
6HR MIN TEMP:  78; 6HR MAX TEMP:  95;

$$

TXZ091>094-102>105-117-120-121-131>134-020700-
NORTH CENTRAL TEXAS

CITY           SKY/WX    TMP DP  RH WIND       PRES   REMARKS
SHRMAN/DENISON PTCLDY    83  61  48 SE9       29.99R
6HR MIN TEMP:  82; 6HR MAX TEMP:  93;

GAINESVILLE    PTCLDY    77  62  59 CALM      29.99S
6HR MIN TEMP:  76; 6HR MAX TEMP:  89;

BOWIE          PTCLDY    74  67  78 CALM      29.98F
6HR MIN TEMP:  74; 6HR MAX TEMP:  85;

DECATUR        MOCLDY    79  63  56 SE3       29.98S
6HR MIN TEMP:  79; 6HR MAX TEMP:  89;

DENTON         PTCLDY    82  62  50 SE6       29.96S
6HR MIN TEMP:  81; 6HR MAX TEMP:  93;

MCKINNEY       CLOUDY    80  63  55 CALM      29.97S
6HR MIN TEMP:  75; 6HR MAX TEMP:  94;

GREENVILLE     CLEAR     73  63  68 CALM      29.97S
ROCKWALL       PTCLDY    83  60  45 SE6       29.95S
6HR MIN TEMP:  83; 6HR MAX TEMP:  93;

TERRELL        PTCLDY    80  60  50 E3        29.96F
6HR MIN TEMP:  80; 6HR MAX TEMP:  95;

WAXAHACHIE     PTCLDY    81  63  54 CALM      29.98S
6HR MIN TEMP:  80; 6HR MAX TEMP:  93;

CLEBURNE         N/A     84  59  42 E7        29.98S
GRANBURY       MOCLDY    84  60  43 SE3       29.97F
6HR MIN TEMP:  82; 6HR MAX TEMP:  95;

$$

TXZ083>090-098>101-113>116-127>130-139>142-154-155-020700-
WESTERN NORTH TEXAS

CITY           SKY/WX    TMP DP  RH WIND       PRES   REMARKS
WICHITA FALLS  LGT RAIN  76  71  85 E5        29.98S
6HR MIN TEMP:  76; 6HR MAX TEMP:  83; 6HR PCP: TRACE;

WF-KICKAPOO    MOCLDY    78  71  77 N5        29.99S
6HR MIN TEMP:  78; 6HR MAX TEMP:  85;

VERNON         PTCLDY    77  66  68 CALM      29.99S
ABILENE        MOCLDY    80  62  54 SE7       30.01S
6HR MIN TEMP:  80; 6HR MAX TEMP:  91;

ABILENE-DYESS  MOCLDY    82  64  55 SE6       29.99F
6HR MIN TEMP:  82; 6HR MAX TEMP:  91;

BRECKENRIDGE   CLOUDY    81  65  57 SE3       29.98S
6HR MIN TEMP:  81; 6HR MAX TEMP:  90;

GRAHAM         CLOUDY    76  72  86 CALM      29.97S
6HR MIN TEMP:  76; 6HR MAX TEMP:  86;

MINERAL WELLS  MOCLDY    77  67  71 SE5       29.96S
6HR MIN TEMP:  77; 6HR MAX TEMP:  88;

STEPHENVILLE   CLOUDY    81  58  45 SE3       30.01S
6HR MIN TEMP:  81; 6HR MAX TEMP:  90;

COMANCHE       CLOUDY    79  57  46 SE3       29.99F
6HR MIN TEMP:  79; 6HR MAX TEMP:  92;

BROWNWOOD      CLOUDY    77  61  57 CALM      29.99S
COLEMAN        MOCLDY    79  64  60 CALM      30.01S
6HR MIN TEMP:  79; 6HR MAX TEMP:  92;

BRADY          CLEAR     81  57  44 SE3       30.00S
$$

TXZ143>147-156>162-174-175-020700-
CENTRAL TEXAS

CITY           SKY/WX    TMP DP  RH WIND       PRES   REMARKS
WACO           CLOUDY    82  62  50 E5        29.95S
6HR MIN TEMP:  82; 6HR MAX TEMP:  95;

WACO-MCGREGOR  MOCLDY    82  57  42 SE5       29.97S
6HR MIN TEMP:  81; 6HR MAX TEMP:  97;

HILLSBORO      PTCLDY    82  59  45 E7        29.96S
6HR MIN TEMP:  82; 6HR MAX TEMP:  94;

CORSICANA      CLEAR     80  64  58 E6        29.96S
6HR MIN TEMP:  80; 6HR MAX TEMP:  95;

MEXIA          CLEAR     77  61  56 SE9       29.94F
6HR MIN TEMP:  77; 6HR MAX TEMP:  94;

HEARNE         CLEAR     77  61  58 CALM      29.95S
6HR MIN TEMP:  76; 6HR MAX TEMP:  95;

CAMERON        CLEAR     80  61  53 CALM      29.94S
6HR MIN TEMP:  80; 6HR MAX TEMP:  95;

TEMPLE         MOCLDY    81  57  44 E8        29.95S
6HR MIN TEMP:  81; 6HR MAX TEMP:  93;

KILLEEN        CLEAR     81  58  45 E2        29.96S
6HR MIN TEMP:  80; 6HR MAX TEMP:  94;

KILLEEN-SKYLRK CLEAR     82  57  42 SE7       29.95S
6HR MIN TEMP:  82; 6HR MAX TEMP:  93;

FORT HOOD      CLEAR     82  60  48 SE3       29.95S
6HR MIN TEMP:  81; 6HR MAX TEMP:  94;

GATESVILLE     PTCLDY    81  59  47 CALM      29.99R
HAMILTON       PTCLDY    80  55  40 MISG      29.99S
6HR MIN TEMP:  80; 6HR MAX TEMP:  94;

LAMPASAS       PTCLDY    78  58  49 CALM      29.97S
6HR MIN TEMP:  78; 6HR MAX TEMP:  96;

$$

TXZ095>097-106>112-122>126-135>138-148>153-164>167-020700-
EAST TEXAS

CITY           SKY/WX    TMP DP  RH WIND       PRES   REMARKS
PARIS          CLEAR     79  61  53 CALM      29.97S
6HR MIN TEMP:  77; 6HR MAX TEMP:  93;

SULPHUR SPRNGS PTCLDY    80  56  43 SE5       29.99S
6HR MIN TEMP:  80; 6HR MAX TEMP:  95;

MOUNT PLEASANT CLEAR     70  64  81 CALM      29.97F
6HR MIN TEMP:  70; 6HR MAX TEMP:  94;

GILMER         CLEAR     71  61  72 CALM      29.96S
6HR MIN TEMP:  71; 6HR MAX TEMP:  92;

MINEOLA        CLEAR     72  63  73 CALM      29.97S
TYLER          CLEAR     78  61  55 CALM      29.96S
6HR MIN TEMP:  77; 6HR MAX TEMP:  96;

LONGVIEW       CLEAR     74  64  71 CALM      29.95S
6HR MIN TEMP:  73; 6HR MAX TEMP:  95;

MARSHALL       CLEAR     73  67  81 CALM      29.98R
6HR MIN TEMP:  73; 6HR MAX TEMP:  94;

ATHENS         CLEAR     72  63  73 CALM      29.95S
PALESTINE      CLEAR     79  59  50 CALM      29.97R
JACKSONVILLE   CLEAR     80  56  43 E3        29.99S
HENDERSON      CLEAR     70  64  81 CALM      29.97S
6HR MIN TEMP:  70; 6HR MAX TEMP:  94;

CENTER         FAIR      71  64  78 CALM      29.95S
6HR MIN TEMP:  71; 6HR MAX TEMP:  94;

NACOGDOCHES    CLEAR     70  64  83 CALM      29.95S
6HR MIN TEMP:  68; 6HR MAX TEMP:  93;

LUFKIN         CLEAR     74  63  68 E5        29.94R
6HR MIN TEMP:  74; 6HR MAX TEMP:  93;

$$

SUPPLEMENTAL OBSERVATIONS (CENTRAL)

CITY           SKY/WX    TMP DP  RH WIND       PRES   REMARKS
LAKE TEXOMA      N/A     79  66  65 SE1         N/A
CADDO GRASSLND   N/A     75  64  69 S3          N/A
PAT MAYSE LAKE   N/A     82  61  47 SE5         N/A
GREENVILLE       N/A     77  57  50 SE1         N/A
CEDAR HILL       N/A     84  57  39 SE1         N/A



USA.gov is the U.S. government's official web portal to all federal, state and local government web resources and services.